NOAA 16 DEB, 41285

Orbit data source: Space-Track

NOAA 16 DEB, 41285 is space debris in SSO originally from a launch on Thu, 21 Sep 2000 UTC launched from the Air Force Western Test Range (AFWTR). Debris objects in space refer to the collection of defunct objects orbiting the Earth. Examples of debris include non-operational satellites, rocket bodies, and fragments generated from explosions, collisions, or faulty payload assembly.

Loading next visibility...
Identifier
41285, 2000-055GM
Orbit
SSO
Last TLE update
20 hours ago
Origin
Manufacturer
Unknown
Mission
Spacecraft
Bus & Motor
Unknown
Mass
Unknown
Launch date (UTC)
2000-09-21 (25 years ago)
Launch vehicle
Unknown
Launch site
Air Force Western Test Range (AFWTR)
Object type
Payload
Rocket body
Debris
Shape & HBR
Unknown
Radar Cross Section
Small (<0.1 m²)

Expand to show TLE details & history

TLE from 20 hours ago
0 NOAA 16 DEB
1 41285U 00055GM  25183.42918345  .00002180  00000-0  94959-3 0  9995
2 41285  98.6859 248.9499 0048633 307.5068  52.1695 14.24402642491646
Epoch: 2025-07-02T10:18Z
TLE epoch observation values (Epoch: 2025-07-02T10:18:01.45Z)
Latitude
Longitude
173.73345°
Altitude
792.083 km
Speed
7.469 km/s
True Right ascension
16h 35m 47s
True Declination
0° 00' 00"
Sunlit
Object was in full shadow at epoch
Visualization orbit readout
Latitude
-79.52553°
Longitude
-60.73144°
Altitude
812.065 km
Speed
7.46 km/s
Apparent Right ascension
04h 57m 11s
Apparent Declination
-63° 59' 35"
Sunlit
Object is in daylight
Visualization observer readout
Local Sidereal Time
17:50:41
Azimuth
166.285° S
Elevation
-64.672°
Doppler factor
1
Orbital elements
Apogee altitude
842.6 km
Perigee altitude
772.707 km
Semi-major axis
7,185.79 km
Eccentricity
0.00486
Inclination
98.6859°
RAAN
248.9499°
Arg. of periapsis
307.5068°
True anomaly
Unknown
Mean anomaly
52.1695°
Eccentric anomaly
Unknown
Mean motion
3.56313 °/min
Orbital period
101.03 mins
BSTAR
0.00094959
Loading maneuver chart data...
Loading SW <> Apogee altitude chart data...
Loading historical data...
Loading historical data...
Loading historical data...
Loading historical data...
Loading historical data...
Loading historical data...
Loading historical data...

NOAA 16 DEB Visibility forecast

Observer location: undefined°, undefined°

Span
Click to sort rows by Start time (UTC) header in descending order
Start Az.
Max El. time (UTC)
Max El. Az.
Max El.
End time (UTC)
End Az.
10 mins2025-07-03 17:13:04.329Z15.373° NNE2025-07-03 17:18:04.329Z83.796° E44.732°2025-07-03 17:23:04.329Z191.595° SSW
4 mins2025-07-04 02:57:04.329Z81.881° E2025-07-04 02:59:04.329Z55.933° ENE15.428°2025-07-04 03:01:04.329Z31.885° NE
9 mins2025-07-04 04:34:04.329Z177.639° S2025-07-04 04:38:04.329Z266.542° W42.776°2025-07-04 04:43:04.329Z340.904° N
|